Burnet, TX

7:46 PM CST on February 24, 2017 (GMT -0600)
Burnet Municipal-Craddock

Weather History for KBMQ - October, 2011

Change the Weather History Date:

Wednesday, October 12, 2011

  Actual Average Record
Temperature  
Mean Temperature 77 °F -  
Max Temperature 90 °F 76 °F 100 °F (2015)
Min Temperature 66 °F 56 °F 53 °F (2001)
Cooling Degree Days 12    
Growing Degree Days 27 (Base 50)    
Moisture  
Dew Point 64 °F    
Average Humidity 70    
Maximum Humidity 90    
Minimum Humidity 36    
Precipitation  
Precipitation 0.00 in - - ()
Sea Level Pressure  
Sea Level Pressure 29.80 in    
Wind  
Wind Speed 5 mph (SSW)    
Max Wind Speed 9 mph    
Max Gust Speed 18 mph    
Visibility 10 miles    
Events      
Averages and records for this station are not official NWS values.
T = Trace of Precipitation, MM = Missing Value Source: NWS Daily Summary

Daily Weather History Graph

Daily Weather History Graph

Search for Another Location

Airport or City:

Trip Planner

Search our weather history database for the weather conditions in past years. The results will help you decide how hot, cold, wet, or windy it might be!

Date:

Astronomy

Oct. 12, 2011 Rise Set
Actual Time 7:33 AM CDT 7:05 PM CDT
Civil Twilight 7:09 AM CDT 7:29 PM CDT
Nautical Twilight 6:41 AM CDT 7:57 PM CDT
Astronomical Twilight 6:13 AM CDT 8:25 PM CDT
Moon 7:16 PM CDT (10/12) 8:02 AM CDT (10/12)
Length of Visible Light 12h 20m
Length of Day
11h 31m
Full, 100% of the Moon is Illuminated
Oct 12
Full
Oct 19
Last Quarter
Oct 26
New
Nov 2
First Quarter
Nov 10
Full

Hourly Weather History & Observations

Time (CDT) Temp. Heat Index Dew Point Humidity Pressure Visibility Wind Dir Wind Speed Gust Speed Precip Events Conditions
12:53 AM 69.1 °F - 61.0 °F 75% 29.82 in 10.0 mi Calm Calm - N/A   Clear
1:53 AM 68.0 °F - 62.1 °F 81% 29.81 in 10.0 mi South 4.6 mph - N/A   Clear
2:53 AM 70.0 °F - 63.0 °F 78% 29.79 in 10.0 mi SSW 9.2 mph - N/A   Partly Cloudy
3:53 AM 69.1 °F - 64.0 °F 84% 29.78 in 10.0 mi SSW 8.1 mph - 0.00 in   Partly Cloudy
4:53 AM 69.1 °F - 64.0 °F 84% 29.77 in 10.0 mi South 5.8 mph - N/A   Scattered Clouds
5:53 AM 69.1 °F - 64.9 °F 87% 29.76 in 10.0 mi SSW 6.9 mph - N/A   Clear
6:53 AM 68.0 °F - 64.0 °F 87% 29.77 in 10.0 mi SW 4.6 mph - N/A   Clear
7:53 AM 66.9 °F - 64.0 °F 90% 29.78 in 9.0 mi WSW 4.6 mph - N/A   Partly Cloudy
8:49 AM 69.8 °F - 64.4 °F 83% 29.85 in 10.0 mi SSW 4.6 mph - N/A   Overcast
8:53 AM 70.0 °F - 64.9 °F 84% 29.81 in 10.0 mi SSW 5.8 mph - N/A   Overcast
9:24 AM 71.6 °F - 64.4 °F 78% 29.86 in 10.0 mi South 5.8 mph - N/A   Overcast
9:53 AM 73.0 °F - 66.0 °F 79% 29.81 in 10.0 mi SSE 4.6 mph - N/A   Mostly Cloudy
10:29 AM 73.4 °F - 66.2 °F 78% 29.86 in 10.0 mi Variable 6.9 mph - N/A   Mostly Cloudy
10:53 AM 75.9 °F - 66.9 °F 74% 29.81 in 10.0 mi SSW 6.9 mph - N/A   Overcast
11:53 AM 79.0 °F - 66.0 °F 64% 29.82 in 10.0 mi SSW 8.1 mph - N/A   Overcast
12:01 PM 78.8 °F - 64.4 °F 61% 29.86 in 10.0 mi SSW 9.2 mph 18.4 mph N/A   Overcast
12:53 PM 82.0 °F 83.8 °F 64.9 °F 56% 29.79 in 10.0 mi South 9.2 mph 16.1 mph N/A   Mostly Cloudy
1:53 PM 84.9 °F 86.1 °F 64.0 °F 49% 29.76 in 10.0 mi SSW 8.1 mph 16.1 mph N/A   Scattered Clouds
2:53 PM 84.9 °F 85.9 °F 63.0 °F 48% 29.75 in 10.0 mi Variable 6.9 mph - N/A   Mostly Cloudy
3:53 PM 87.1 °F 87.8 °F 63.0 °F 44% 29.74 in 10.0 mi NNW 3.5 mph - N/A   Clear
4:53 PM 88.0 °F 87.9 °F 61.0 °F 40% 29.73 in 10.0 mi Calm Calm - N/A   Scattered Clouds
5:53 PM 88.0 °F 86.9 °F 57.9 °F 36% 29.74 in 10.0 mi West 8.1 mph - N/A   Clear
6:53 PM 86.0 °F 85.4 °F 59.0 °F 40% 29.75 in 10.0 mi NNW 4.6 mph - N/A   Clear
7:53 PM 81.0 °F 81.9 °F 62.1 °F 52% 29.78 in 10.0 mi NNE 6.9 mph - N/A   Clear
8:53 PM 77.0 °F - 66.9 °F 71% 29.82 in 10.0 mi NE 9.2 mph - N/A   Clear
9:53 PM 75.0 °F - 68.0 °F 79% 29.85 in 10.0 mi NE 5.8 mph - N/A   Clear
10:53 PM 73.0 °F - 66.9 °F 81% 29.87 in 9.0 mi NE 6.9 mph - N/A   Clear
11:53 PM 72.0 °F - 66.9 °F 84% 29.88 in 8.0 mi NNE 6.9 mph - N/A   Clear